Torna al catalogo

SNUGLITE-III DURI

AttivoRadioamatoreSSO
NORAD 66661·PAYLOAD·🇰🇷 South Korea

Lanciato Nov 26, 2025 da Naro Space Center

Loading…

Prossimi Passaggi (prossime 24 ore)

TLE

AggiornatoSource: AMSAT

Epoca: Sep 14, 2026, 12:26 UTC

1 66661U 25274M   26257.51836132  .00001019  00000-0  10009-3 0  9990
2 66661  97.7484 185.7936 0016073  82.6528 277.6518 14.94245093 43579

Traccia SNUGLITE-III DURI in tempo reale con AllMySat

Download on the App Store